This demonstration page uses our WeatherBlox Daily Observations layout. Learn more.

Left ArrowRight Arrow

Hourly Observations for April 11, 2022

Temp ( °F °C ) Dew Point ( °F °C ) Humidity (%) Winds ( mph kmh ) Pressure ( in mb ) Visibility ( mi km ) Precip ( " mm )
12:56 am 00:56 Clear 45 7.2 31 -0.5 58 58 NW 5 7 29.79 1009 10 16 0.00 0.00
1:56 am 01:56 Clear 44 6.4 31 -0.6 61 61 WNW 6 9 29.80 1009 10 16 0.00 0.00
2:56 am 02:56 Mostly Cloudy 44 6.4 32 -0.1 63 63 NW 9 15 29.76 1008 10 16 0.00 0.00
3:56 am 03:56 Mostly Cloudy 42 5.5 32 -0.1 68 68 NW 6 9 29.82 1010 10 16 0.00 0.00
4:56 am 04:56 Cloudy 42 5.4 32 0.2 69 69 Calm 29.83 1010 10 16 0.00 0.00
5:56 am 05:56 Cloudy 41 5.1 32 0.1 70 70 SW 7 11 29.86 1011 10 16 0.00 0.00
6:56 am 06:56 Mostly Cloudy 41 4.9 33 0.3 72 72 SSW 6 9 29.90 1012 8 13 0.00 0.00
7:56 am 07:56 Mostly Cloudy 40 4.5 33 0.3 74 74 Calm 29.89 1012 10 16 0.00 0.00
8:56 am 08:56 Mostly Cloudy 43 6.1 34 1 70 70 WNW 8 13 29.92 1013 10 16 0.00 0.00
9:56 am 09:56 Partly Cloudy 48 8.7 35 1.4 60 60 W 5 7 29.93 1014 10 16 0.00 0.00
10:56 am 10:56 Sunny 52 11.2 34 0.9 49 49 SSW 3 6 29.95 1014 10 16 0.00 0.00
11:56 am 11:56 Mostly Cloudy 56 13.3 31 -0.7 38 38 W 5 7 29.95 1014 10 16 0.00 0.00
12:56 pm 12:56 Sunny 59 15.2 27 -2.7 29 29 S 6 9 29.94 1014 10 16 0.00 0.00
1:56 pm 13:56 Sunny 62 16.7 25 -4 24 24 WSW 5 7 29.90 1012 10 16 0.00 0.00
2:56 pm 14:56 Sunny 64 17.6 24 -4.4 22 22 W 5 7 29.88 1012 10 16 0.00 0.00
3:56 pm 15:56 Sunny 65 18.5 23 -4.9 20 20 SSW 8 13 29.85 1011 10 16 0.00 0.00
4:56 pm 16:56 Sunny 66 19 23 -5.2 19 19 S 10 17 29.83 1010 10 16 0.00 0.00
5:56 pm 17:56 Sunny 66 18.7 24 -4.7 20 20 SSE 10 17 29.83 1010 8 13 0.00 0.00
6:56 pm 18:56 Sunny 64 17.8 24 -4.2 22 22 SSE 13 20 29.82 1010 8 13 0.00 0.00
7:56 pm 19:56 Sunny 60 15.4 25 -4 26 26 SE 6 9 29.82 1010 10 16 0.00 0.00
8:56 pm 20:56 Clear 57 13.7 24 -4.5 28 28 Calm 29.84 1011 10 16 0.00 0.00
9:56 pm 21:56 Clear 54 12.2 23 -4.9 30 30 Calm 29.86 1011 10 16 0.00 0.00
10:56 pm 22:56 Mostly Clear 50 10.1 26 -3.6 38 38 Calm 29.85 1011 10 16 0.00 0.00
11:56 pm 23:56 Clear 50 10 28 -2 43 43 SE 8 13 29.85 1011 10 16 0.00 0.00

Powered by AerisWeather